Theta_e
307 308 308 308 307 307 307 309 310 311 307 304 303 303 303 304 305 304 307 308 303 301 303 303 303 303 304 303 299 304 301 302 300 297 297 298 295 298 295 295 294 292 291 292 293 289 285 301 300 292 298 302 299 297
307 307 307 307 307 306 306 307 308 310 307 304 303 303 303 303 304 303 304 308 306 300 302 306 306 307 306 306 304 305 303 302 306 302 301 300 295 297 296 291 298 291 297 292 295 294 302 304 302 303 304 298 298 295
306 306 307 307 307 306 306 307 307 309 307 305 304 303 303 303 304 303 304 305 304 301 302 302 304 309 308 306 313 302 305 307 306 309 302 301 293 299 294 295 296 299 300 296 295 298 299 301 303 302 302 300 295 294
306 306 306 306 306 306 306 306 307 308 308 305 304 303 303 303 303 303 305 306 304 301 297 303 309 307 310 309 308 309 308 311 311 305 301 300 298 302 296 298 296 299 299 296 295 299 300 302 302 302 300 297 294 295
305 306 306 306 306 306 306 306 306 307 308 305 304 303 304 303 303 304 306 306 307 301 299 301 308 308 308 309 308 309 310 309 304 301 300 298 301 300 300 299 296 301 297 295 294 299 299 301 300 297 295 294 294 293
304 305 305 306 306 306 306 306 306 307 307 305 304 304 303 303 302 305 300 308 310 307 302 299 307 304 305 306 306 307 308 308 305 302 301 303 303 302 295 292 301 301 303 302 299 302 304 302 301 297 294 293 295 295
302 304 304 305 305 306 306 306 307 308 307 305 304 303 303 303 303 300 299 305 304 310 301 298 299 303 303 305 305 305 307 305 304 302 300 300 300 302 296 295 301 301 301 302 303 305 301 299 294 295 295 295 296 294
301 302 304 305 305 305 306 305 307 308 306 304 304 304 303 302 302 298 302 301 305 302 301 295 299 299 305 302 301 305 302 303 303 301 302 299 301 300 295 299 300 301 301 302 302 303 300 298 296 295 295 295 292 292
300 301 303 304 305 305 305 306 306 307 305 304 304 303 300 298 299 301 303 302 304 302 297 296 295 297 305 303 305 303 304 296 304 298 298 299 297 294 298 298 300 300 301 301 303 301 299 295 294 293 293 293 292 293
300 301 302 304 304 305 305 306 305 306 304 303 300 294 292 300 305 305 302 299 298 298 297 294 301 297 300 301 300 300 301 297 294 298 303 295 296 302 303 303 303 303 304 303 299 296 294 293 293 292 292 293 293 293
300 301 302 304 304 305 305 305 306 304 303 296 291 292 302 307 302 300 296 295 296 293 297 298 299 297 302 297 297 301 298 298 291 296 294 293 295 298 302 302 305 305 303 302 299 297 296 295 293 293 293 295 295 294
300 301 302 303 304 305 305 305 303 299 296 297 299 304 302 298 296 292 291 295 294 292 299 297 298 300 301 303 298 299 294 297 290 300 294 292 300 302 303 302 302 302 302 299 298 296 294 295 295 295 295 297 297 297
300 301 302 303 304 304 305 303 302 300 300 301 297 294 294 293 287 287 286 291 292 298 299 299 296 300 300 300 298 296 291 291 299 292 291 295 303 303 304 303 301 303 301 298 296 296 295 297 298 296 295 298 298 297
300 301 302 302 303 304 303 300 299 299 298 292 290 285 288 287 290 293 295 296 300 301 300 300 298 298 299 296 298 291 295 296 291 288 290 300 301 302 304 303 302 301 298 297 295 296 297 297 297 298 300 299 299 297
300 300 301 303 304 303 300 300 299 299 295 290 291 285 288 295 298 299 300 300 300 302 301 297 298 297 295 294 296 294 291 288 291 292 299 300 303 304 302 302 302 301 299 298 298 297 297 298 299 298 299 300 299 299
299 300 301 303 302 301 299 299 297 296 295 292 291 289 294 293 293 296 297 297 301 300 300 299 295 293 293 294 291 290 289 288 294 301 302 303 304 305 302 303 302 300 300 300 299 298 299 300 296 296 298 300 298 295
301 298 302 302 300 299 299 295 293 291 291 288 290 295 296 295 294 295 297 298 302 298 293 297 292 291 297 291 290 294 292 297 300 302 303 305 305 304 303 302 301 300 301 300 299 299 300 299 300 297 294 296 296 296
297 301 302 300 298 297 295 295 292 291 287 291 289 292 294 296 297 298 299 299 298 297 298 295 300 293 290 288 291 297 299 302 303 303 303 305 306 306 303 301 301 301 301 301 300 301 300 299 298 298 298 298 298 297
298 299 299 298 298 295 290 291 294 286 289 292 293 296 294 295 298 298 298 299 300 301 300 299 293 292 293 299 299 299 300 302 301 302 304 306 307 306 303 302 299 301 302 301 301 300 301 301 300 300 300 300 298 298
299 298 298 297 299 293 288 289 295 289 287 290 291 290 290 291 294 295 296 297 297 297 295 293 295 299 298 300 303 302 304 304 303 301 301 303 306 305 302 302 300 300 302 301 301 294 300 300 301 301 301 301 300 300
296 295 296 298 295 294 293 289 288 290 291 289 291 291 291 292 292 292 293 297 294 292 292 296 297 300 304 305 304 305 304 304 303 302 302 301 305 306 303 302 301 298 301 300 299 299 296 300 301 302 303 301 301 301
294 296 296 296 292 291 292 294 291 293 290 290 291 292 291 290 290 292 296 295 293 294 297 298 298 300 300 303 303 305 305 306 306 303 299 300 303 303 301 301 298 297 300 300 300 300 299 301 302 302 303 301 300 302
297 296 294 292 287 287 285 293 287 288 285 287 290 288 290 291 293 296 292 293 295 298 299 299 301 303 302 302 304 304 305 305 303 304 303 303 305 306 303 301 300 297 299 301 301 301 300 295 299 301 302 303 302 302
297 292 288 287 287 283 289 286 289 288 288 287 286 282 287 291 295 290 287 292 296 299 298 300 300 299 300 301 301 301 302 304 303 305 304 304 304 304 304 302 300 299 302 302 301 302 302 301 295 301 302 303 303 303
286 284 286 282 287 284 283 283 284 285 283 286 285 285 289 293 286 285 286 293 296 297 298 299 299 299 298 299 300 301 305 304 302 302 304 304 305 305 303 302 300 302 302 301 300 301 302 302 301 301 301 302 303 303
280 285 283 284 284 283 284 282 284 284 286 285 286 291 293 289 285 285 291 295 297 298 300 300 299 298 298 299 299 299 302 305 304 302 304 304 306 305 301 299 297 297 301 303 301 301 301 301 301 300 301 300 293 302
280 283 287 292 290 288 287 289 292 287 285 285 288 289 288 283 284 292 299 301 299 300 304 304 302 300 300 300 301 302 304 306 306 305 306 305 307 308 305 301 299 300 302 302 303 302 301 301 301 301 301 302 303 303
286 288 284 287 287 289 286 287 286 286 288 292 292 285 285 286 289 296 298 300 302 302 303 303 303 304 302 302 302 302 304 305 306 306 305 308 310 309 307 305 304 293 304 304 304 304 304 303 302 302 302 301 302 303
286 290 289 286 287 288 287 286 287 291 294 295 290 289 291 298 298 299 300 301 303 301 301 301 302 304 304 304 304 303 304 303 301 299 299 302 302 303 303 304 303 303 303 304 286 292 304 304 304 304 303 303 303 303
287 291 287 285 285 285 289 292 291 294 296 296 297 295 295 297 300 303 301 300 301 300 302 303 302 303 301 301 301 301 303 304 304 301 300 301 301 303 302 302 303 303 303 304 304 302 289 301 298 305 303 303 303 302
291 289 286 286 286 289 291 293 295 295 295 294 295 293 292 294 298 301 302 303 303 303 302 302 302 304 302 302 301 300 300 303 304 304 307 307 306 305 304 303 304 304 304 304 303 302 302 302 302 302 302 302 302 300
289 287 286 284 287 292 294 292 291 290 292 291 291 292 292 290 290 300 305 304 301 299 296 300 302 302 304 304 304 304 296 305 308 308 307 306 305 305 305 304 304 305 305 305 304 303 303 302 302 301 301 302 302 302
288 289 289 288 287 287 291 290 288 288 288 287 289 290 291 291 293 301 306 305 302 302 303 304 304 304 305 305 307 307 302 309 303 294 292 293 297 299 304 304 306 306 306 304 304 303 302 302 302 302 302 303 303 302
Wind_Speed
13 13 12 13 11 10 11 10 9 11 12 10 7 4 5 8 11 8 4 4 6 5 4 2 2 5 3 4 5 6 4 5 5 5 4 2 5 2 4 3 2 5 5 6 7 8 7 3 12 5 13 15 16 15
13 13 13 12 12 11 10 11 10 10 14 12 10 7 5 5 9 9 4 3 3 6 6 4 8 8 7 7 8 4 2 3 2 2 3 4 5 6 6 4 5 4 2 2 3 5 14 17 11 12 14 16 13 10
15 13 12 12 13 11 11 11 12 11 15 14 12 9 6 4 6 8 6 4 5 5 7 7 4 5 4 8 2 6 4 5 3 6 5 3 4 4 4 5 7 5 2 4 7 7 13 18 12 10 14 14 10 12
15 14 13 13 12 11 12 12 11 11 17 16 14 11 8 5 5 8 6 4 4 5 6 6 6 4 2 5 8 7 5 2 5 5 7 5 3 4 6 7 9 9 7 10 11 14 14 14 13 16 11 12 12 13
15 15 15 14 13 13 13 12 12 11 16 17 15 12 9 6 6 9 6 3 4 6 6 4 8 4 4 6 8 5 6 8 6 5 4 4 6 6 7 5 9 3 5 3 7 13 14 15 12 7 10 10 11 12
14 15 16 16 14 13 12 13 12 11 18 18 16 13 10 7 6 7 5 4 3 4 5 4 6 6 6 5 8 9 7 6 6 5 4 4 2 3 5 5 8 7 6 6 10 14 14 10 8 7 7 10 12 13
15 14 15 16 16 13 12 11 12 12 19 18 16 13 9 7 7 5 7 6 2 3 5 5 5 6 5 6 5 6 8 6 6 7 6 7 5 4 8 9 14 8 4 7 10 11 12 9 3 6 8 10 12 11
17 17 15 16 16 15 13 12 12 16 19 18 14 11 7 6 9 8 8 4 4 5 4 5 2 6 10 6 6 5 6 7 6 7 2 7 3 4 5 7 4 5 7 9 10 9 5 4 5 7 8 10 11 10
17 17 16 16 16 15 15 13 13 18 19 17 14 11 4 4 6 4 13 6 5 5 4 5 6 3 8 7 4 6 5 6 3 5 7 4 5 6 9 4 4 6 8 9 9 5 8 8 7 7 9 9 8 8
17 17 17 16 16 15 14 14 12 23 21 20 8 5 6 4 20 14 5 7 6 5 6 6 8 5 6 7 7 4 4 6 5 6 1 5 11 12 13 3 4 8 6 9 10 10 8 8 8 9 9 7 6 5
17 17 18 16 17 14 13 12 18 26 21 4 5 3 6 10 5 5 6 6 7 5 6 6 10 7 5 6 5 4 3 2 5 4 3 3 3 4 3 1 8 7 4 5 5 3 4 6 7 6 7 4 3 4
17 16 16 14 16 15 14 18 32 12 7 5 4 4 5 4 5 7 6 6 7 7 8 7 6 7 5 3 5 4 5 2 4 4 3 3 2 6 3 4 4 3 5 4 6 4 4 5 1 4 5 6 6 5
16 14 12 12 11 9 15 31 25 17 12 3 2 7 5 5 6 8 10 6 7 6 7 7 8 6 4 6 4 4 5 5 3 3 4 3 7 4 3 6 5 4 3 4 4 3 3 5 4 3 9 7 3 7
14 13 11 12 9 15 31 27 27 17 3 4 6 7 7 7 9 9 8 7 5 6 10 10 10 6 5 6 4 5 5 3 4 5 5 6 5 7 6 6 1 4 3 5 3 2 5 2 5 8 8 2 3 6
13 14 12 9 14 31 30 31 24 3 3 4 4 6 9 8 5 5 3 3 6 7 10 8 7 4 6 4 4 4 5 5 5 3 4 5 6 6 7 4 3 3 3 3 3 3 5 7 9 9 6 5 3 9
15 14 13 16 28 29 30 22 4 0 2 3 5 6 6 7 6 4 6 6 6 8 7 6 5 5 6 4 6 8 5 6 4 4 7 7 6 7 6 5 3 4 3 4 3 5 6 9 9 7 3 8 12 9
18 4 17 31 33 31 23 4 2 3 4 4 7 7 1 3 6 6 5 7 8 7 7 4 6 8 4 5 6 5 5 2 7 9 6 8 7 7 8 5 4 3 2 5 5 5 7 8 11 8 11 9 9 8
3 18 32 34 24 13 3 2 3 5 5 6 5 4 4 1 2 2 3 4 7 8 8 3 2 9 6 6 7 4 5 4 7 8 9 7 6 10 6 7 5 4 4 5 5 6 7 7 7 10 11 9 10 9
13 18 32 29 12 6 4 2 3 4 6 2 4 0 4 4 3 3 4 6 7 3 3 4 5 6 5 1 1 5 6 9 6 8 8 6 7 9 9 8 6 4 3 6 3 5 7 5 3 6 8 10 10 8
28 28 22 11 4 3 4 3 3 3 4 3 4 6 6 6 6 6 6 7 7 7 8 5 5 3 4 6 2 3 3 5 8 8 8 8 9 8 9 7 6 4 3 5 4 5 5 5 2 4 6 10 8 9
19 11 10 3 3 3 2 4 5 4 3 4 7 9 6 10 10 9 8 8 8 8 8 7 7 7 1 6 7 2 5 6 5 5 6 6 10 10 7 6 7 3 5 5 5 3 2 5 3 6 1 8 9 7
4 7 4 4 3 2 1 1 1 1 3 3 4 4 3 5 5 7 7 7 10 9 10 10 9 8 6 8 7 8 5 5 6 8 10 6 9 9 7 7 6 5 5 6 5 3 4 4 4 7 2 8 9 8
10 3 3 3 2 3 3 4 5 5 4 4 5 4 4 3 4 5 4 8 9 10 10 11 13 12 10 9 10 7 6 9 5 4 5 4 8 9 8 9 7 7 7 7 5 3 5 1 3 4 3 5 8 8
2 4 5 6 5 4 4 5 4 3 3 3 4 4 3 4 2 2 6 9 9 12 12 14 11 10 9 12 9 9 10 9 8 7 6 7 7 7 8 9 7 6 6 8 6 4 3 6 2 5 3 5 7 7
2 3 5 3 4 6 6 5 6 5 6 7 3 4 3 4 3 4 5 8 9 9 11 12 12 12 12 11 11 12 14 12 11 9 8 6 8 9 8 8 8 8 7 9 8 6 3 4 4 5 5 5 8 9
3 6 5 8 5 6 7 6 7 7 5 5 6 3 5 4 6 6 5 6 3 4 8 10 10 11 11 11 11 11 11 12 11 9 9 8 10 10 9 10 9 7 6 10 9 6 6 5 7 5 6 5 4 9
5 7 5 5 4 5 4 4 3 5 6 6 4 6 4 4 6 4 4 8 4 5 6 5 6 8 8 8 9 11 11 11 10 9 9 6 9 11 10 11 12 10 12 12 10 8 7 7 7 8 8 8 7 8
5 4 7 9 7 6 6 2 5 6 5 3 4 5 5 6 2 3 3 0 4 4 5 5 6 7 8 9 10 11 11 12 10 7 8 10 9 8 10 8 8 17 15 13 10 8 8 9 9 11 10 8 8 8
7 5 6 7 7 6 5 5 4 3 3 2 2 3 2 2 3 3 3 3 3 5 7 6 6 7 7 8 8 9 11 11 15 16 14 11 9 9 7 12 14 13 11 9 6 5 8 9 11 10 11 9 9 9
8 5 6 5 7 7 6 6 6 4 2 1 1 4 6 5 6 4 4 6 6 7 10 6 8 8 9 10 10 10 10 10 11 12 11 13 11 10 11 13 13 12 10 9 7 7 6 10 9 9 10 9 8 9
2 4 5 7 6 8 9 7 5 4 5 5 5 5 4 4 6 4 7 8 7 11 7 8 9 8 9 10 10 11 10 10 12 13 12 13 12 14 14 11 11 10 10 10 10 10 10 10 10 11 12 13 12 11
4 7 5 5 5 7 6 3 3 4 5 6 5 3 2 3 4 5 8 9 6 5 6 8 10 10 11 10 10 9 8 10 13 14 19 13 13 18 15 13 12 10 12 11 11 11 11 12 11 12 12 14 14 13
4 4 4 2 4 4 5 5 6 4 3 3 2 2 2 3 3 3 4 3 5 8 9 9 10 11 13 13 15 13 7 9 14 14 10 11 20 15 12 10 10 11 13 13 13 13 13 15 13 13 14 14 14 14
Wind_Direction
258 259 260 262 261 273 282 289 286 234 215 219 228 252 311 339 344 327 63 17 324 311 316 337 248 278 271 240 283 79 246 169 244 250 262 320 292 33 301 322 271 246 286 272 254 250 275 23 355 349 320 327 339 340
251 255 256 255 255 262 269 279 283 250 209 212 217 225 263 314 328 335 274 116 324 266 0 351 306 310 304 322 302 151 350 294 314 269 331 352 295 310 325 281 151 276 221 268 309 280 315 323 331 327 4 334 335 327
249 251 254 252 254 249 262 265 272 269 205 208 208 216 235 282 312 320 323 353 259 263 243 206 169 116 233 238 285 283 158 32 211 327 321 290 281 289 275 304 308 271 359 252 295 281 308 306 315 348 349 342 19 341
247 248 248 251 258 243 252 258 262 275 206 203 203 206 216 230 274 296 292 15 278 285 280 112 133 165 70 182 215 243 309 300 286 243 271 253 260 259 279 326 289 274 257 264 286 287 313 306 338 352 12 348 344 319
257 249 246 248 250 257 243 249 258 254 204 199 199 201 208 214 248 276 273 264 277 295 329 11 167 163 191 222 208 218 212 236 219 202 272 270 282 300 274 315 284 358 351 306 288 316 315 318 37 38 356 340 322 314
261 256 252 246 246 252 258 244 245 246 198 194 197 198 200 218 242 257 223 160 196 239 272 271 99 174 171 200 216 205 206 233 279 282 274 269 215 272 300 276 314 27 20 11 314 309 305 341 1 28 356 324 315 320
264 259 256 248 241 245 255 262 242 220 192 189 191 193 191 211 244 285 1 26 16 258 251 258 187 156 197 186 190 200 206 231 245 265 238 268 231 216 270 277 275 299 359 328 310 328 318 10 356 1 331 322 321 319
266 259 258 253 238 235 240 254 252 198 184 182 181 178 177 209 275 248 185 194 301 271 265 267 194 181 183 197 179 182 196 209 207 256 176 268 161 235 268 269 42 357 317 324 341 353 40 1 332 349 327 321 323 318
264 262 256 252 238 231 233 234 246 191 172 169 157 154 158 232 224 100 124 151 227 295 279 217 253 149 171 234 145 175 227 204 203 239 249 206 217 228 250 344 354 334 345 321 327 353 4 338 349 338 322 319 315 338
261 260 259 252 242 226 227 228 266 165 158 146 155 186 201 147 116 129 170 184 193 204 224 255 245 237 199 173 192 172 197 240 199 206 98 238 244 235 235 330 351 15 1 357 335 344 333 348 356 332 324 331 346 337
261 261 256 253 236 222 225 245 176 140 139 168 165 215 71 142 193 218 198 208 178 219 209 230 242 218 159 234 214 218 204 223 251 131 187 240 257 222 172 290 54 46 14 25 0 303 20 6 331 346 321 356 56 17
259 256 250 261 228 218 238 176 148 136 157 168 121 151 135 203 219 198 201 196 209 227 158 197 180 220 114 248 257 155 247 204 257 141 237 252 153 153 94 60 98 32 29 358 5 22 44 328 328 284 288 320 340 33
252 255 248 251 223 251 203 158 145 130 116 80 135 182 188 172 187 210 192 182 203 189 144 166 155 172 125 225 212 194 220 218 110 228 211 245 112 154 96 72 112 55 18 357 30 69 321 266 262 302 297 296 4 67
243 252 249 249 254 181 141 135 133 128 100 166 177 171 216 186 210 206 215 188 177 165 158 176 159 180 176 180 195 201 220 141 221 222 222 122 98 78 81 101 246 49 10 16 20 344 277 313 348 295 281 236 211 103
241 244 267 255 206 146 139 139 137 145 163 190 199 211 211 224 210 209 176 103 132 170 170 160 165 172 184 187 213 209 190 219 211 223 111 117 100 104 110 118 90 38 29 31 69 12 10 328 341 19 29 38 140 101
241 260 237 182 138 133 134 135 107 323 228 229 231 245 202 214 180 197 184 189 184 166 164 151 174 185 198 211 194 200 225 186 201 133 145 133 118 96 103 107 98 71 26 102 66 51 337 10 60 19 18 86 93 99
205 212 174 145 133 131 136 95 123 179 205 217 214 238 284 256 204 184 194 175 186 187 176 180 200 184 197 215 214 218 204 68 130 125 110 91 108 108 104 129 111 92 92 119 95 82 22 80 65 69 75 93 108 115
211 138 133 127 123 127 73 92 183 192 214 225 242 187 201 328 248 197 191 192 206 203 206 223 291 210 194 199 213 182 126 124 121 128 114 118 112 128 150 124 111 91 125 120 89 90 75 71 93 98 115 127 126 133
121 124 129 137 157 102 121 159 250 213 230 199 192 213 217 202 238 259 238 227 227 244 173 216 228 224 212 188 97 173 137 145 145 124 119 125 118 120 126 128 145 122 133 125 146 68 83 56 355 123 129 133 130 144
126 130 135 139 212 97 109 121 190 255 219 186 224 219 214 225 231 224 214 210 223 201 211 202 216 230 206 244 261 148 154 165 139 155 159 150 119 118 129 147 145 160 163 138 122 304 114 79 59 44 95 103 109 120
109 126 121 128 46 74 164 160 183 218 195 208 196 202 213 205 225 225 214 219 214 221 233 233 229 240 120 85 307 188 204 156 177 140 152 171 128 126 138 137 142 155 176 162 132 119 225 75 5 101 33 102 113 96
102 150 94 37 58 48 120 127 32 235 218 273 213 177 216 217 227 238 228 229 226 224 221 234 234 249 206 192 197 246 106 231 125 127 141 158 126 126 145 150 148 163 173 168 147 127 113 70 3 103 146 122 128 138
128 103 107 141 141 154 241 196 218 210 213 206 170 190 202 196 211 199 213 223 228 225 236 233 240 240 238 225 210 213 195 226 192 222 146 142 111 124 137 147 164 158 170 180 170 210 114 127 150 124 144 130 116 129
107 153 179 181 173 199 172 189 209 224 215 218 185 206 181 167 192 209 257 243 214 207 219 220 214 221 219 232 226 207 209 220 225 199 178 148 132 124 137 146 157 158 183 177 180 177 214 117 237 161 153 143 138 124
144 218 150 223 207 193 194 195 190 199 214 197 154 245 155 153 169 232 233 234 229 206 197 200 206 211 214 214 213 225 207 206 217 196 172 157 140 126 130 146 154 162 179 192 192 181 170 152 149 155 170 157 127 125
213 201 194 194 180 202 205 198 192 190 190 185 195 202 164 184 215 231 220 236 232 281 217 195 195 205 202 213 206 211 201 211 208 184 183 165 142 149 158 158 157 162 200 192 196 175 186 185 147 164 134 111 66 130
241 203 194 215 195 198 238 240 158 165 186 199 206 167 161 205 230 234 104 71 70 333 324 315 221 200 207 196 203 200 211 198 207 189 166 178 153 146 156 168 173 166 178 199 201 203 186 180 170 160 159 158 160 134
246 275 211 192 203 212 235 289 205 194 210 203 157 178 197 209 238 56 99 293 321 293 297 273 260 258 204 195 196 187 198 184 190 157 145 82 97 126 133 147 151 145 174 187 188 192 177 170 161 148 151 149 141 141
234 224 230 218 201 203 221 207 245 236 233 163 186 259 285 40 150 254 306 334 271 270 263 235 209 231 202 184 185 189 189 178 184 185 164 131 134 134 134 135 151 169 166 183 73 336 156 149 150 146 137 136 134 132
235 232 245 241 235 214 219 189 229 244 275 266 345 291 273 284 314 328 281 246 215 214 234 216 188 211 182 176 173 188 185 187 182 182 180 150 149 138 145 153 161 171 172 158 143 106 92 117 114 129 137 138 143 134
217 196 230 223 237 232 237 258 276 272 245 232 224 257 291 315 304 271 212 224 206 232 206 190 189 193 169 173 172 173 175 181 179 185 144 136 151 158 149 159 169 174 160 150 145 151 147 147 146 146 147 143 140 133
246 220 215 220 239 229 209 222 218 228 234 233 231 181 207 225 249 214 182 202 203 169 197 188 177 160 164 165 166 163 159 142 120 122 134 145 152 140 150 170 180 165 149 152 149 148 143 132 128 130 132 132 120 118
224 235 206 233 216 200 171 180 192 190 180 200 192 184 202 262 213 121 185 198 180 175 176 165 151 153 154 154 113 102 93 96 113 124 133 128 134 155 163 159 156 154 158 143 147 137 133 127 130 137 136 132 123 115